Teesside, United Kingdom

8:51 PM BST on April 27, 2017 (GMT +0100)
Teesside

Weather History for EGNV - May, 2013

Change the Weather History Date:

Wednesday, May 29, 2013

  Actual Average Record
Temperature  
Mean Temperature 50 °F -  
Max Temperature 51 °F 63 °F 73 °F (2003)
Min Temperature 48 °F 47 °F 39 °F (2006)
Degree Days  
Heating Degree Days 16    
Moisture  
Dew Point 49 °F    
Average Humidity 94    
Maximum Humidity 100    
Minimum Humidity 88    
Precipitation  
Precipitation 0.00 in - - ()
Sea Level Pressure  
Sea Level Pressure 29.77 in    
Wind  
Wind Speed 13 mph ()    
Max Wind Speed 21 mph    
Max Gust Speed -    
Visibility 2.0 miles    
Events Rain    
Averages and records for this station are not official NWS values.
T = Trace of Precipitation, MM = Missing Value Source: Averaged Metar Reports

Daily Weather History Graph

Daily Weather History Graph

Search for Another Location

Airport or City:

Trip Planner

Search our weather history database for the weather conditions in past years. The results will help you decide how hot, cold, wet, or windy it might be!

Date:

Astronomy

May. 29, 2013 Rise Set
Actual Time 4:40 AM BST 9:26 PM BST
Civil Twilight 3:48 AM BST 10:18 PM BST
Nautical Twilight 2:21 AM BST 11:47 PM BST
Astronomical Twilight Sun does not set Sun does not set
Moon 12:16 AM BST (5/29) 9:47 AM BST (5/29)
Length of Visible Light 18h 29m
Length of Day
16h 46m
Waning Gibbous, 75% of the Moon is Illuminated
May 29
Waning Gibbous
May 31
Last Quarter
Jun 8
New
Jun 16
First Quarter
Jun 23
Full

Hourly Weather History & Observations

Time (BST) Temp. Dew Point Humidity Pressure Visibility Wind Dir Wind Speed Gust Speed Precip Events Conditions
5:50 AM 48.2 °F 48.2 °F 100% 29.71 in 1.1 mi North 12.7 mph - N/A   Drizzle
6:20 AM 48.2 °F 48.2 °F 100% 29.71 in 1.0 mi North 13.8 mph - N/A   Haze
6:50 AM 50.0 °F 48.2 °F 94% 29.71 in 4.3 mi North 13.8 mph - N/A   Scattered Clouds
7:20 AM 50.0 °F 48.2 °F 94% 29.74 in 1.9 mi North 15.0 mph - N/A   Overcast
7:50 AM 50.0 °F 48.2 °F 94% 29.74 in 1.9 mi North 12.7 mph - N/A   Overcast
8:20 AM 50.0 °F 48.2 °F 94% 29.74 in 1.2 mi NNW 11.5 mph - N/A   Overcast
8:50 AM 50.0 °F 50.0 °F 100% 29.74 in 2.5 mi North 11.5 mph - N/A   Mostly Cloudy
9:20 AM 51.8 °F 50.0 °F 94% 29.74 in 1.9 mi North 12.7 mph - N/A Rain Light Rain
9:50 AM 51.8 °F 48.2 °F 88% 29.74 in 1.9 mi North 12.7 mph - N/A Rain Light Rain
10:20 AM 50.0 °F 48.2 °F 94% 29.74 in 1.2 mi North 15.0 mph - N/A Rain Light Rain
10:50 AM 50.0 °F 48.2 °F 94% 29.74 in 1.2 mi North 13.8 mph - N/A   Haze
11:20 AM 50.0 °F 48.2 °F 94% 29.74 in 1.2 mi North 15.0 mph - N/A   Haze
11:50 AM 50.0 °F 48.2 °F 94% 29.77 in 1.6 mi North 15.0 mph - N/A   Light Drizzle
12:20 PM 50.0 °F 48.2 °F 94% 29.77 in 1.9 mi North 13.8 mph - N/A   Light Drizzle
12:50 PM 50.0 °F 48.2 °F 94% 29.77 in 1.9 mi North 11.5 mph - N/A   Haze
1:20 PM 51.8 °F 48.2 °F 88% 29.77 in 2.2 mi North 15.0 mph - N/A   Haze
1:50 PM 51.8 °F 50.0 °F 94% 29.77 in 1.9 mi North 16.1 mph - N/A   Haze
2:20 PM 51.8 °F 50.0 °F 94% 29.77 in 1.9 mi North 17.3 mph - N/A Rain Light Rain
2:50 PM 51.8 °F 50.0 °F 94% 29.77 in 1.9 mi North 17.3 mph - N/A   Haze
3:20 PM 51.8 °F 50.0 °F 94% 29.77 in 1.9 mi North 18.4 mph - N/A   Haze
3:50 PM 51.8 °F 50.0 °F 94% 29.77 in 1.9 mi North 16.1 mph - N/A   Haze
4:20 PM 51.8 °F 50.0 °F 94% 29.80 in 1.9 mi North 20.7 mph - N/A   Haze
4:50 PM 51.8 °F 48.2 °F 88% 29.80 in 2.2 mi North 18.4 mph - N/A   Haze
5:20 PM 51.8 °F 50.0 °F 94% 29.80 in 2.5 mi North 15.0 mph - N/A   Overcast
5:50 PM 51.8 °F 50.0 °F 94% 29.80 in 2.8 mi North 13.8 mph - N/A   Mostly Cloudy
6:20 PM 51.8 °F 50.0 °F 94% 29.80 in 2.8 mi North 17.3 mph - N/A   Overcast
6:50 PM 51.8 °F 50.0 °F 94% 29.80 in 2.8 mi North 18.4 mph - N/A   Haze
7:20 PM 51.8 °F 50.0 °F 94% 29.83 in 1.9 mi North 17.3 mph - N/A   Haze
7:50 PM 51.8 °F 50.0 °F 94% 29.83 in 2.5 mi North 11.5 mph - N/A Rain Light Rain
8:20 PM 51.8 °F 50.0 °F 94% 29.83 in 2.5 mi North 10.4 mph - N/A Rain Light Rain
8:50 PM 51.8 °F 50.0 °F 94% 29.86 in 2.5 mi NNW 9.2 mph - N/A Rain Light Rain
9:20 PM 51.8 °F 50.0 °F 94% 29.86 in 1.9 mi NNW 10.4 mph - N/A Rain Light Rain
9:50 PM 51.8 °F 50.0 °F 94% 29.83 in 1.9 mi NW 6.9 mph - N/A Rain Light Rain